Home   Weather   Klagenfurt   Past weeks

Flag for Austria Past Weather in Klagenfurt, Carinthia, Austria — Yesterday and Last 2 Weeks

Now
52 °F

Cool.


Feels Like: 52 °F
Forecast: 44 / 72 °F
Wind: 1 mph from North

Location: Klagenfurt-Flughafen

Current Time: Aug 21, 2017 at 1:30:25 am

Latest Report: Aug 21, 2017 at 12:50 am


Visibility: N/A

Pressure: 30.24 "Hg

Humidity: 88%

Dew Point: 48 °F

Location of KlagenfurtLocation

Past Weather in Klagenfurt — Graph

°F

Klagenfurt Temperature Yesterday

Maximum temperature yesterday: 70 °F (at 3:20 pm)
Minimum temperature yesterday: 54 °F (at 11:20 pm)
Average temperature yesterday: 61 °F

High & Low Weather Summary for the Past Weeks

 TemperatureHumidityPressure
High88 °F (Aug 9, 5:50 pm)100% (Aug 6, 9:50 pm)30.24 "Hg (Aug 6, 9:50 pm)
Low50 °F (Aug 13, 5:20 am)30% (Aug 11, 5:20 pm)29.86 "Hg (Aug 11, 10:50 am)
Average68 °F72%30.09 "Hg
* Reported Aug 5 11:20 pm — Aug 20 11:50 pm, Klagenfurt. Weather by CustomWeather, © 2017

Note: Actual official high and low records may vary slightly from our data, if they occured in-between our weather recording intervals... More about our weather records

Advertising

Klagenfurt Weather History for the Previous 24 Hours

Scroll right to see more
 ConditionsComfort  
Time TempWeatherWind HumidityBarometerVisibility
11:50 pm
Sun, Aug 20
54 °FCool.6 mph82%30.24 "HgN/A
11:20 pm54 °FClear.3 mph82%30.21 "Hg10 mi
10:50 pm55 °FPassing clouds.2 mph77%30.24 "HgN/A
10:20 pm57 °FPassing clouds.5 mph72%30.21 "HgN/A
9:50 pm61 °FPassing clouds.2 mph55%30.21 "HgN/A
9:20 pm63 °FPassing clouds.2 mph52%30.21 "HgN/A
8:50 pm61 °FPassing clouds.6 mph59%30.18 "HgN/A
8:20 pm64 °FPassing clouds.8 mph49%30.18 "HgN/A
7:50 pm66 °FPassing clouds.8 mph49%30.18 "HgN/A
7:20 pm68 °FPassing clouds.1 mph49%30.15 "HgN/A
6:50 pm70 °FScattered clouds.2 mph40%30.15 "HgN/A
6:20 pm70 °FScattered clouds.6 mph40%30.15 "HgN/A
5:50 pm70 °FScattered clouds.8 mph40%30.15 "HgN/A
5:20 pm70 °FScattered clouds.12 mph38%30.15 "HgN/A
4:50 pm70 °FScattered clouds.9 mph43%30.15 "HgN/A
4:20 pm70 °FPartly sunny.7 mph43%30.15 "HgN/A
3:50 pm70 °FScattered clouds.8 mph43%30.15 "HgN/A
3:20 pm70 °FScattered clouds.3 mph50%30.15 "HgN/A
2:50 pm68 °FScattered clouds.3 mph56%30.15 "HgN/A
2:20 pm68 °FScattered clouds.3 mph56%30.15 "HgN/A
1:50 pm66 °FScattered clouds.7 mph60%30.15 "HgN/A
1:20 pm68 °FScattered clouds.3 mph60%30.15 "HgN/A
12:50 pm68 °FScattered clouds.3 mph56%30.15 "HgN/A
12:20 pm66 °FScattered clouds.2 mph56%30.18 "HgN/A
11:50 am66 °FScattered clouds.3 mph68%30.18 "HgN/A
11:20 am63 °FPassing clouds.5 mph68%30.18 "HgN/A
10:50 am61 °FScattered clouds.5 mph72%30.18 "HgN/A
10:20 am59 °FScattered clouds.5 mph82%30.18 "HgN/A
9:50 am59 °FPartly sunny.5 mph82%30.18 "HgN/A
9:20 am57 °FBroken clouds.5 mph88%30.18 "HgN/A
8:50 am57 °FBroken clouds.3 mph88%30.18 "HgN/A
8:20 am55 °FBroken clouds.5 mph94%30.18 "HgN/A
7:50 am55 °FBroken clouds.5 mph88%30.18 "HgN/A
7:20 am55 °FPartly sunny.3 mph88%30.15 "HgN/A
6:50 am55 °FPartly sunny.2 mph88%30.15 "HgN/A
6:20 am55 °FPartly sunny.5 mph94%30.15 "HgN/A
5:50 am55 °FLight rain. Passing clouds.6 mph88%30.15 "HgN/A
5:20 am55 °FOvercast.3 mph88%30.15 "HgN/A
4:50 am55 °FOvercast.2 mph94%30.18 "HgN/A
4:20 am55 °FPassing clouds.6 mph94%30.15 "HgN/A
3:50 am55 °FLight rain. Partly cloudy.3 mph94%30.18 "HgN/A
3:20 am55 °FLight rain. Passing clouds.2 mph94%30.15 "HgN/A
2:50 am57 °FRain. Passing clouds.3 mph88%30.21 "HgN/A
1:50 am57 °FRain. Overcast.5 mph94%30.21 "Hg5 mi
1:20 am57 °FThunderstorms. Overcast.5 mph94%30.21 "HgN/A
Weather by CustomWeather, © 2017

See weather overviewHow to use our weather pages